Regional Weather Roundup
Issued by NWS

Home | Current Version | Previous Version | Text Only | Print | Product List | Glossary Off
Versions: 1 2 3 4 5 6 7 8 9 10 11 12 13 14 15 16 17 18 19 20 21 22 23 24 25 26 27 28 29 30 31 32 33 34 35 36 37 38 39 40 41 42 43 44 45 46 47 48 49 50

000
ASUS43 KTOP 260408
RWRKS

WEATHER ROUNDUP FOR KANSAS
NATIONAL WEATHER SERVICE GOODLAND KS
1100 PM CDT FRI JUL 25 2014

NOTE:  "FAIR" INDICATES FEW OR NO CLOUDS BELOW 12,000 FEET WITH NO
SIGNIFICANT WEATHER AND/OR OBSTRUCTIONS TO VISIBILITY.

KSZ001>006-013>018-027>032-041>047-260500-
NORTHWEST KANSAS

CITY           SKY/WX    TMP DP  RH WIND       PRES   REMARKS
GOODLAND       LGT RAIN  78  68  71 SE10      29.97R
HAYS           PTCLDY    82  68  61 NE3       29.84R
HILL CITY      PTCLDY    82  69  64 NE8       29.85R
RUSSELL        PTCLDY    83  68  60 W3        29.81R
$$

KSZ061>065-074>080-084>089-260500-
SOUTHWEST KANSAS

CITY           SKY/WX    TMP DP  RH WIND       PRES   REMARKS
DODGE CITY     PTCLDY    84  57  39 S9        29.87R
ELKHART          N/A     86  56  36 S12         N/A
GARDEN CITY    CLOUDY    88  59  37 S7        29.89R
GREAT BEND     CLEAR     84  63  48 S3        29.82R
LIBERAL        MOCLDY    90  54  29 S15       29.91R
PRATT          PTCLDY    82  55  39 S13       29.86R
$$

KSZ066>073-081>083-090>101-260500-
SOUTHEAST KANSAS

CITY           SKY/WX    TMP DP  RH WIND       PRES   REMARKS
CHANUTE        CLEAR     82  73  74 S17G24    29.87R
COFFEYVILLE    CLEAR     82  73  74 S15       29.88R
HUTCHINSON     CLEAR     89  58  34 S13       29.83R
MEDICINE LODGE   N/A     86  60  41 SE6       29.84R
NEWTON         CLEAR     86  64  48 S16       29.88R
PARSONS        CLEAR     82  72  71 S10       29.89R
WICHITA INTL   PTCLDY    86  69  56 S16       29.84R
WICHITA JABRA  CLEAR     86  71  60 S17       29.85R
WICHITA MCCONL CLEAR     86  69  57 S17       29.86R
WINFIELD       CLEAR     84  72  67 S17       29.87R
$$

KSZ007>012-019>026-033>040-048>060-102>105-260500-
NORTHEAST KANSAS

CITY           SKY/WX    TMP DP  RH WIND       PRES   REMARKS
CONCORDIA      PTCLDY    84  75  74 NE5       29.80R
EMPORIA        CLEAR     83  73  72 S18G25    29.83R
LAWRENCE       PTCLDY    86  73  65 S14G22    29.80R
MANHATTAN      CLEAR     89  68  49 S9        29.78R
MARYSVILLE     PTCLDY    79  75  89 CALM      29.80R
OLATHE IND     PTCLDY    83  74  74 S15       29.83R
OLATHE EXE     PTCLDY    83  74  74 S13G26    29.83R
SALINA         CLEAR     90  60  36 S9        29.79R
TOPEKA BILLARD CLEAR     88  73  61 S14G23    29.79R HX  95
TOPEKA FORBES  CLEAR     86  72  62 S14G23    29.80R
$$


USA.gov is the U.S. government's official web portal to all federal, state and local government web resources and services.